Location: Miles
(41.4492°N, 81.6087°W)
Time: 04:32:46
(UTC+00:00)

S-56A Canister/Altair - Pass Details

Date: 22 September 2024
Orbit: 636 x 2487 km, 38.9° (Epoch: 11 October)

Event Time Altitude Azimuth Distance (km) Brightness Sun altitude
Rises 00:01:47 0° 265° (W) 3,051 12.6 -7.8°
Reaches altitude 10° 00:03:53 10° 263° (W) 2,234 11.4 -8.2°
Maximum altitude 00:08:57 71° 180° (S) 946 7.9 -9.2°
Enters shadow 00:15:32 13° 98° (E) 2,899 9.8 -10.4°
